Regional Weather Roundup
Issued by NWS

Home | Current Version | Previous Version | Graphics & Text | Print | Product List | Glossary Off
Versions: 1 2 3 4 5 6 7 8 9 10 11 12 13 14 15 16 17 18 19 20 21 22 23 24 25 26 27 28 29 30 31 32 33 34 35 36 37 38 39 40 41 42 43 44 45 46 47 48 49 50

000
ASUS43 KDTX 161801
RWRMI
MICHIGAN HOURLY REGIONAL WEATHER ROUNDUP
NATIONAL WEATHER SERVICE DETROIT/PONTIAC MI
100 PM EST TUE JAN 16 2018

NOTE: "FAIR" INDICATES FEW OR NO CLOUDS BELOW 12,000 FEET WITH NO
SIGNIFICANT WEATHER AND/OR OBSTRUCTION TO VISIBILITY.

MIZ047>049-052>055-059>063-066>070-074>076-081>083-161900-
SOUTHEAST LOWER MICHIGAN

CITY           SKY/WX    TMP DP  RH WIND       PRES   REMARKS
ADRIAN         LGT SNOW   5   0  79 SW9       30.41F WCI  -9
6HR MIN TEMP:   3; 6HR MAX TEMP:   7; 6HR PCP: TRACE;

ALMA           LGT SNOW  18  17  97 NW6       30.37F WCI  10
6HR MIN TEMP:  -4; 6HR MAX TEMP:  18;

ANN ARBOR      LGT SNOW  11   6  81 SW8       30.37F WCI  -1
BAD AXE        LGT SNOW  17  14  89 W5        30.33F WCI  10
6HR MIN TEMP:   8; 6HR MAX TEMP:  17;

CARO           LGT SNOW  15  13  92 W5        30.34F WCI   7
DETROIT CITY   LGT SNOW  14   9  80 SW9       30.37F WCI   2
6HR MIN TEMP:  14; 6HR MAX TEMP:  16; 6HR PCP: TRACE;

DETROIT        LGT SNOW  11   5  77 SW13      30.39F WCI  -4
6HR MIN TEMP:  11; 6HR MAX TEMP:  15; 6HR PCP: TRACE;

FLINT          LGT SNOW  16  11  80 W9        30.35F WCI   4
6HR MIN TEMP:  12; 6HR MAX TEMP:  16; 6HR PCP: TRACE;

GROSSE ILE     FLURRIES  10   4  75 W8        30.39F WCI  -2
6HR MIN TEMP:   9; 6HR MAX TEMP:  13;

HILLSDALE      LGT SNOW  10   1  67 SW3       30.35F
HOWELL         LGT SNOW  11   7  82 W6        30.35F WCI   2
6HR MIN TEMP:  11; 6HR MAX TEMP:  13;


CITY           SKY/WX    TMP DP  RH WIND       PRES   REMARKS
JACKSON        LGT SNOW   9   3  77 SW9       30.36F WCI  -4
6HR MIN TEMP:   4; 6HR MAX TEMP:   9; 6HR PCP: TRACE;

LAMBERTVILLE   PTSUNNY    6  -2  69 W9        30.43S WCI  -7
6HR MIN TEMP:   5; 6HR MAX TEMP:   8;

LANSING        CLOUDY    12   6  77 SW7       30.38F WCI   1
6HR MIN TEMP:   9; 6HR MAX TEMP:  13; 6HR PCP: TRACE;

LAPEER         LGT SNOW  17  15  93 W8        30.34F WCI   6
6HR MIN TEMP:   8; 6HR MAX TEMP:  17;

MASON          FLURRIES  12   3  68 W5        30.37F WCI   4
6HR MIN TEMP:   9; 6HR MAX TEMP:  13;

MONROE         FLURRIES   7  -1  68 W12       30.40F WCI  -8
6HR MIN TEMP:   7; 6HR MAX TEMP:  10;

MT. CLEMENS    LGT SNOW  19  15  82 W10       30.34S FOG     WCI   8
6HR MIN TEMP:  17; 6HR MAX TEMP:  20; 6HR PCP: TRACE;

PONTIAC        LGT SNOW  16  11  80 W9        30.32F WCI   4
6HR MIN TEMP:  14; 6HR MAX TEMP:  17; 6HR PCP: TRACE;

PORT HOPE        N/A     24  20  84 CALM      30.31F
6HR MIN TEMP:  18; 6HR MAX TEMP:  24; 6HR PCP:  0.03;

PORT HURON     CLOUDY    18  12  79 W6        30.35F WCI   9
TRI CITIES     LGT SNOW  20  16  84 N9        30.36F FOG     WCI   9
6HR MIN TEMP:   5; 6HR MAX TEMP:  20; 6HR PCP: TRACE;

MIDLAND        CLOUDY    21  15  77 NW7       30.36F WCI  13
6HR MIN TEMP:   3; 6HR MAX TEMP:  21;

TROY           LGT SNOW  19  13  77 SW3       30.37F
SAGINAW HB     LGT SNOW  19  18  93 W5          N/A  VSB 3/4 WCI  13
$$
MIZ043>046-050>051-056>058-064>065-071>073-077>080-161900-
SOUTHWEST LOWER MICHIGAN

CITY           SKY/WX    TMP DP  RH WIND       PRES   REMARKS
BATTLE CREEK   LGT SNOW   7   2  80 SW7       30.39F WCI  -5
6HR MIN TEMP:   1; 6HR MAX TEMP:   7; 6HR PCP: TRACE;

BENTON HARBOR  PTSUNNY    9   1  70 S5        30.43F WCI   1
6HR MIN TEMP:   4; 6HR MAX TEMP:   9; 6HR PCP: TRACE;

BIG RAPIDS     PTSUNNY   19   9  67 N6        30.36F WCI  10
6HR MIN TEMP:  10; 6HR MAX TEMP:  20;

COLDWATER      LGT SNOW   7   0  74 SW7       30.39F WCI  -5
6HR MIN TEMP:   2; 6HR MAX TEMP:   7;

FREMONT        FAIR      20   8  58 N7        30.39F WCI  11
6HR MIN TEMP:   8; 6HR MAX TEMP:  20;

HOLLAND        FAIR      13   8  81 S3        30.41F
6HR MIN TEMP:   9; 6HR MAX TEMP:  13; 6HR PCP:  0.01;

GRAND RAPIDS   PTSUNNY   15   8  73 SW7       30.38F WCI   5
6HR MIN TEMP:  10; 6HR MAX TEMP:  15; 6HR PCP:  0.02;

IONIA          FLURRIES  15   9  76 SW6       30.37S WCI   7
6HR MIN TEMP:  12; 6HR MAX TEMP:  16;

KALAMAZOO      LGT SNOW   7   1  76 SW5       30.40F WCI  -2
6HR MIN TEMP:   2; 6HR MAX TEMP:   7; 6HR PCP: TRACE;

LUDINGTON      FAIR      21  12  66 NE5       30.41F WCI  15
6HR MIN TEMP:   4; 6HR MAX TEMP:  21;

MARSHALL       FLURRIES   7   0  71 SW7       30.38F WCI  -4
6HR MIN TEMP:   3; 6HR MAX TEMP:   8;

MOUNT PLEASANT FAIR      20  13  73 N6        30.35F WCI  13
6HR MIN TEMP:  10; 6HR MAX TEMP:  20;

MUSKEGON       PTSUNNY   18  13  80 S3        30.41F
6HR MIN TEMP:  10; 6HR MAX TEMP:  20;

SOUTH HAVEN    PTSUNNY   12   3  66 CALM      30.42F
$$
MIZ016>042-161900-
NORTHERN LOWER MICHIGAN

CITY           SKY/WX    TMP DP  RH WIND       PRES   REMARKS
ALPENA         CLOUDY    17  10  74 N9        30.39F WCI   6
6HR MIN TEMP:   9; 6HR MAX TEMP:  17; 6HR PCP: TRACE;

BELLAIRE       CLOUDY    16   9  73 N5        30.43F WCI   9
6HR MIN TEMP:   2; 6HR MAX TEMP:  17;

CADILLAC       LGT SNOW  16   9  72 N7        30.33F WCI   6
CHARLEVOIX     CLOUDY    16   9  74 N6        30.45F WCI   7
6HR MIN TEMP:  12; 6HR MAX TEMP:  16;

FRANKFORT      CLOUDY    22  12  64 N7        30.42F WCI  13
GAYLORD        LGT SNOW  12   7  80 NW5       30.34F WCI   4
6HR MIN TEMP:   7; 6HR MAX TEMP:  12; 6HR PCP: TRACE;

GRAYLING       PTSUNNY   16   7  66 NW6       30.35F WCI   8
6HR MIN TEMP:   3; 6HR MAX TEMP:  17;

HARBOR SPRINGS CLOUDY    14   6  68 E3        30.42F
HOUGHTON LAKE  CLOUDY    17   8  67 N8        30.35F WCI   7
6HR MIN TEMP:  11; 6HR MAX TEMP:  18; 6HR PCP: TRACE;

MANISTEE       FAIR      24  11  57 NE10      30.41F WCI  14
OSCODA         LGT SNOW  19  11  73 N10       30.36F WCI   7
6HR MIN TEMP:  17; 6HR MAX TEMP:  20;

PELLSTON       PTSUNNY   13   5  70 N6        30.42F WCI   4
6HR MIN TEMP:  -1; 6HR MAX TEMP:  15; 6HR PCP: TRACE;

ROGERS CITY    LGT SNOW  14   8  76 NE5       30.41F WCI   7
TRAVERSE CITY  FLURRIES  19  11  70 NE7       30.41F WCI  10
6HR MIN TEMP:  15; 6HR MAX TEMP:  19; 6HR PCP: TRACE;

$$
MIZ007>008-015-161900-
EASTERN UPPER MICHIGAN

CITY           SKY/WX    TMP DP  RH WIND       PRES   REMARKS
MACKINAC ISLAN PTSUNNY   15   5  65 N7        30.42F WCI   5
6HR MIN TEMP:  10; 6HR MAX TEMP:  15;

NEWBERRY       FAIR      15   3  61 N9        30.41F HAZE    WCI   3
6HR MIN TEMP:   1; 6HR MAX TEMP:  15;

S. S. MARIE    FAIR      14   2  58 W5        30.41F WCI   6
6HR MIN TEMP:   2; 6HR MAX TEMP:  14;

MUNISING         N/A     20  17  88 CALM      30.44F
6HR MIN TEMP:   9; 6HR MAX TEMP:  20; 6HR PCP:  0.07;

$$
MIZ004>006-011>014-085-161900-
CENTRAL UPPER MICHIGAN

CITY           SKY/WX    TMP DP  RH WIND       PRES   REMARKS
MANISTIQUE     FAIR      17   6  61 NE7       30.44F WCI   7
6HR MIN TEMP:   3; 6HR MAX TEMP:  17;

ESCANABA       CLOUDY    24  12  60 NE5       30.47F WCI  18
6HR MIN TEMP:  -2; 6HR MAX TEMP:  24; 6HR PCP: TRACE;

MENOMINEE      CLOUDY    23  17  78 N6        30.49F WCI  16
6HR MIN TEMP:   8; 6HR MAX TEMP:  23; 6HR PCP: TRACE;

SAWYER-GWINN   LGT SNOW  18  14  86 NE7       30.41F VSB 3/4 WCI   8
$$
MIZ001>003-009>011-084-161900-
WESTERN UPPER MICHIGAN

CITY           SKY/WX    TMP DP  RH WIND       PRES   REMARKS
IRON MOUNTAIN  LGT SNOW  19  13  77 NW9       30.42F WCI   8
6HR MIN TEMP:  -8; 6HR MAX TEMP:  20; 6HR PCP: TRACE;

HOUGHTON       FLURRIES  18   8  65 N10       30.46F WCI   6
6HR MIN TEMP:  16; 6HR MAX TEMP:  19; 6HR PCP: TRACE;

COPPER HARBOR    N/A     19  11  70 N10       30.48F WCI   7
6HR MIN TEMP:  19; 6HR MAX TEMP:  21; 6HR PCP:  0.01;

IRONWOOD       LGT SNOW  17  13  84 NW8       30.50F FOG     WCI   7
6HR MIN TEMP:  16; 6HR MAX TEMP:  17; 6HR PCP: TRACE;

$$

ABBREVIATIONS USED IN REMARKS
   TC - TEMPERATURE IN CELSIUS
  WCI - WIND CHILL INDEX
   HX - HEAT INDEX
  VSB - VISIBILITY





USA.gov is the U.S. government's official web portal to all federal, state and local government web resources and services.